Weather in Timashovsk

Russia / Krasnodar Krai     45°36′57″N   38°56′06″E
temp.,
°C
wind,
m/s
gust,
m/s
humid.,
%
clouds,
%
prec.,
mm/h
press.,
hPa
HPBL,
m
18 may, wed
wed1800:00+12sw358194 0.0 1015111
03:00+11s348898 0.0 101464
06:00+13ssw31088100 0.1 1013325
09:00+17ssw51069100 0.1 1012785
12:00+17ssw3870100 0.1 1011965
15:00+17w3573100 0.3 1010198
18:00+15nnw3383100 0.9 1010102
21:00+13sw2597100 3.6 1011178
19 may, thu
thu1900:00+12w479598 0.3 1012318
03:00+11w51093100 0.4 1014479
06:00+10w4891100 0.1 1015396
09:00+14wsw6865100 0.1 10171330
12:00+17wsw7951100 0.2 10172285
15:00+16w81060100 0.4 10171677
18:00+13wnw7107610 0.4 10181058
21:00+11w61078100 0.4 1020662
20 may, fri
fri2000:00+11wsw598864 0.4 1020325
03:00+10wsw499466 0.7 1020188
06:00+10wsw4890100 0.0 1021168
09:00+16w5866100 0.2 1021712
12:00+18wnw685797 0.7 10211568
15:00+19nw67456 0.8 10202241
18:00+17wnw46619 0.0 1020547
21:00+12w338141 0.0 102140
21 may, sat
sat2100:00+10sw4785100 0.0 1019114
03:00+10sw41083100 0.0 1018192
06:00+12ssw61476100 0.0 1017386
09:00+18sw91466100 0.0 10151434
12:00+20sw111656100 0.0 10141827
15:00+17sw121864100 0.1 10131298
18:00+15sw122060100 0.0 10111191
21:00+15sw11185949 0.2 10111038
22 may, sun
sun2200:00+16sw91562100 0.1 1011983
03:00+15wsw7137699 0.3 1011807
06:00+13nw1389100 0.2 1011198
09:00+13nnw1290100 0.3 1010219
12:00+12ene2396100 1.6 1008189
15:00+13wsw3994100 6.9 1007648
18:00+16sw1483100 0.1 1005208
21:00+10nne4597100 0.2 1006138